Volver al catálogo

M-5 R/B(2)

LostHEO
NORAD 25388·ROCKET BODY·🇯🇵 Japan

Lanzado Jul 3, 1998 desde Uchinoura Space Center

Loading…

Próximos Pases (próximas 24 horas)

TLE

ObsoletoSource: Space-Track

Época: Jul 22, 1998, 13:07 UTC

1 25388U 98041C   98203.54668980  .00018647  00000-0  10000-3 0  9996
2 25388  23.8800 241.2790 9726635 156.0980 359.9999  0.05194046    14

Sigue M-5 R/B(2) en tiempo real con AllMySat

Download on the App Store